View from above orbital plane
|
View from above satellite
|
Ground track
|
The orbit data is extracted from the following two-line orbital elements,
1 7715U 75023B 21112.00457399 .00000164 00000-0 89979-4 0 9998
2 7715 81.2185 306.6896 0051563 140.3508 220.1450 14.06797838363195
Epoch (UTC): | 22 April 2021 00:06:35 |
Eccentricity: | 0.0051563 |
inclination: | 81.2185° |
perigee height: | 833 km |
apogee height: | 908 km |
right ascension of ascending node: | 306.6896° |
argument of perigee: | 140.3508° |
revolutions per day: | 14.06797838 |
mean anomaly at epoch: | 220.1450° |
orbit number at epoch: | 36319 |
The dashed part of the orbit path shows where the satellite is in the earth's shadow,
|
|